Snowfall_Accumulation
0.3 0.2 0.1 0.2 0.2 0.1 0.1 0.2 0.1 0.0 0.0 0.0 0.0 0.0 0.0 0.0 0.0 0.0 0.0 0.0 0.0 0.0 0.0 0.0 0.0 0.0 0.0 0.0 0.0 0.0 0.0 0.0 0.0 0.0 0.0 0.0 0.0 0.0 0.0 0.0 0.0 0.0 0.0
1.2 0.9 0.5 0.4 0.3 0.2 0.2 0.2 0.2 0.1 0.0 0.0 0.0 0.0 0.0 0.0 0.0 0.0 0.0 0.0 0.0 0.0 0.0 0.0 0.0 0.0 0.0 0.0 0.0 0.0 0.0 0.0 0.0 0.0 0.0 0.0 0.0 0.0 0.0 0.0 0.0 0.0 0.0
2.9 2.8 1.1 1.4 1.0 1.7 1.6 0.6 0.5 0.4 0.3 0.1 0.0 0.0 0.0 0.0 0.0 0.0 0.0 0.0 0.0 0.0 0.0 0.0 0.0 0.0 0.0 0.0 0.0 0.0 0.0 0.0 0.0 0.0 0.0 0.0 0.0 0.0 0.0 0.0 0.0 0.0 0.0
1.3 2.9 2.8 2.9 4.7 3.3 2.6 2.4 2.3 1.0 1.3 0.5 0.3 0.2 0.2 0.1 0.0 0.0 0.0 0.0 0.0 0.0 0.1 0.1 0.0 0.0 0.0 0.0 0.0 0.0 0.0 0.0 0.0 0.0 0.0 0.0 0.0 0.0 0.0 0.0 0.0 0.0 0.0
0.3 0.4 1.5 3.8 3.0 2.8 3.6 4.1 3.7 3.1 2.7 1.6 1.3 1.3 0.9 1.2 1.1 0.6 0.5 0.9 0.9 0.4 0.6 0.8 0.6 nan nan nan 0.1 0.0 0.0 0.0 0.0 0.0 0.0 0.0 0.0 0.0 0.0 0.0 0.0 0.0 0.0
0.0 0.0 0.0 0.0 0.1 1.5 1.2 1.5 1.1 2.5 3.7 2.1 2.9 1.6 1.9 0.9 nan nan 1.9 2.7 2.7 3.2 3.9 3.2 1.8 2.1 1.7 nan nan nan nan 0.3 0.0 0.0 0.0 0.0 0.0 0.3 0.1 0.0 0.0 0.0 0.0
0.0 0.0 0.0 0.0 0.0 0.0 0.2 0.1 1.0 0.7 0.8 1.2 1.1 1.2 1.0 1.3 nan nan nan 2.8 3.6 3.9 3.9 3.9 3.9 3.3 nan 2.2 nan nan nan nan 0.9 0.5 0.6 1.1 0.9 0.7 0.3 0.1 0.0 0.0 0.0
0.1 0.0 0.0 0.0 0.0 0.0 0.0 0.0 0.1 0.1 0.3 0.2 0.3 0.2 0.2 0.1 nan nan nan 0.0 0.2 0.3 0.4 0.3 0.4 0.5 1.2 1.6 1.6 1.8 1.5 1.3 1.2 0.8 0.9 1.1 1.0 0.6 0.4 0.1 0.0 0.0 0.0
1.0 1.1 0.3 0.1 0.1 0.1 0.1 0.1 0.2 0.2 0.3 1.0 0.5 0.6 0.6 0.6 nan nan 0.1 0.0 0.2 0.7 0.4 0.4 0.2 0.2 nan nan 0.1 0.2 0.9 1.8 nan nan nan nan nan nan nan 0.2 0.5 0.4 0.9
0.8 1.2 1.4 0.6 0.6 0.4 0.4 0.7 0.4 0.2 1.2 1.7 1.4 1.7 nan 1.1 nan nan nan 0.5 1.3 2.1 1.8 1.5 nan 1.1 nan nan 0.1 0.4 2.9 5.0 4.2 3.8 4.2 4.6 nan nan nan 2.7 1.3 0.7 1.9
0.3 0.2 0.5 1.0 1.5 1.5 1.1 0.4 0.8 0.7 0.6 1.2 1.8 2.2 2.8 2.3 1.7 nan nan 1.7 4.3 4.3 4.3 4.5 3.8 nan nan nan nan 3.2 4.3 6.3 7.9 8.3 7.4 8.2 7.2 5.8 5.3 5.5 5.8 5.7 4.9
0.1 0.2 0.2 0.3 0.4 0.3 0.7 0.6 1.0 1.0 1.7 1.6 1.3 2.1 2.2 2.0 nan nan nan nan nan 3.5 5.4 6.3 7.1 nan nan nan 4.6 nan nan 3.8 8.4 8.8 8.1 8.3 8.4 8.3 7.4 7.7 8.5 7.9 8.2
0.0 0.0 0.1 0.1 0.1 0.1 0.3 0.5 1.6 0.6 1.8 1.6 2.4 3.2 3.5 2.3 2.2 nan nan nan nan 5.2 5.6 7.7 nan nan nan 1.5 nan nan 3.9 11.5 13.8 16.2 15.2 13.5 11.3 8.6 6.4 6.3 5.9 6.2 8.0
0.0 0.0 0.0 0.0 0.0 0.0 0.1 0.2 0.5 1.2 1.6 2.0 3.0 4.2 4.0 3.5 3.3 2.7 2.9 3.2 nan 4.6 1.8 5.7 3.1 4.8 3.0 4.7 6.0 7.4 7.9 10.3 13.1 15.3 15.5 13.7 11.0 10.2 10.2 9.0 9.3 9.2 8.8
0.0 0.0 0.0 0.0 0.0 0.0 0.2 0.6 0.5 1.4 1.2 2.2 3.9 5.0 9.3 11.3 10.5 7.6 5.8 6.7 6.9 4.8 5.2 6.3 6.8 6.9 7.7 7.6 7.6 8.4 8.0 7.9 10.5 11.6 11.5 10.5 9.1 7.7 7.7 5.9 6.1 6.1 7.7
0.0 0.0 0.4 0.4 0.3 0.3 0.4 0.7 nan nan nan nan nan 4.3 8.4 nan nan nan nan nan nan nan 4.9 7.4 13.2 13.9 10.8 9.5 10.1 8.9 7.0 5.2 5.4 4.8 5.5 4.8 4.9 5.4 4.5 3.0 2.9 4.0 4.8
0.2 0.1 0.6 0.5 0.7 0.9 1.2 1.4 2.0 2.3 nan nan nan nan nan nan nan nan nan nan nan nan 6.6 7.8 12.0 12.3 7.4 3.8 3.2 3.1 5.3 4.6 2.4 3.0 3.4 3.6 2.9 2.1 2.5 2.2 2.3 2.1 2.4
2.1 0.6 2.3 2.6 2.8 3.7 4.5 5.5 6.5 7.1 9.9 11.0 nan nan nan nan nan nan nan nan 4.6 nan 3.1 4.9 6.8 5.6 2.5 2.0 1.8 2.1 2.5 3.1 2.8 1.8 2.9 4.9 6.2 3.6 3.6 2.3 1.9 4.2 2.1
1.6 3.4 5.5 5.8 6.6 7.3 7.1 7.6 7.6 7.0 7.8 8.5 6.9 4.1 4.3 nan nan nan nan 5.9 6.3 4.3 2.8 2.7 4.8 3.4 3.3 2.4 7.9 8.4 11.1 9.5 9.0 11.8 6.4 7.2 14.3 4.5 5.0 3.6 4.0 3.4 2.6
3.6 2.9 4.2 6.1 7.0 6.4 5.8 5.5 4.7 5.1 4.7 6.1 6.2 7.0 5.4 3.1 11.0 18.0 12.9 17.4 12.9 6.7 6.4 4.0 4.1 4.2 5.2 4.4 9.3 15.3 12.7 12.1 8.3 5.7 12.2 16.8 14.4 6.2 6.2 5.2 6.5 6.3 2.0
4.3 3.0 1.6 3.0 3.8 4.0 4.8 5.1 4.4 5.8 7.0 6.3 9.3 12.4 2.9 5.2 8.9 8.5 7.2 9.8 7.8 6.4 9.4 4.1 5.7 6.9 5.6 6.6 3.7 8.1 3.5 16.5 6.6 7.2 6.5 6.7 29.2 10.3 4.4 4.5 5.2 3.4 2.3
2.0 1.9 2.0 2.7 2.3 4.0 3.2 2.6 4.1 3.8 3.7 4.7 6.1 4.8 3.7 8.9 6.3 6.4 6.6 10.3 16.0 6.8 5.2 6.2 5.0 4.2 4.4 5.1 5.7 16.9 12.7 16.4 12.9 9.5 8.3 8.3 6.1 6.0 5.6 5.3 7.1 6.9 3.7
1.6 2.7 1.8 1.6 2.0 5.6 5.7 3.1 5.5 6.9 6.1 8.1 5.4 6.3 7.0 10.3 10.4 7.0 9.3 14.5 7.5 9.0 7.9 6.7 12.0 7.4 7.3 10.3 9.8 7.4 11.1 9.1 9.0 10.8 12.9 12.1 6.6 6.9 11.0 7.4 6.0 7.7 8.7
1.8 3.7 2.1 4.8 6.6 3.6 10.0 14.5 9.8 7.5 6.5 8.5 15.7 12.2 10.2 10.4 19.5 16.0 16.5 19.3 13.2 16.7 16.9 16.3 8.0 6.4 6.0 16.7 11.6 9.3 6.1 10.4 8.1 9.2 9.3 12.9 8.4 5.1 8.9 7.1 6.8 9.4 10.3
5.3 8.3 8.7 5.7 6.0 12.6 16.3 12.1 13.5 14.9 14.6 16.8 19.5 15.1 6.3 11.9 9.3 20.5 17.2 13.1 11.3 17.0 9.6 11.9 10.2 7.7 9.0 7.9 7.1 4.2 5.4 4.5 9.0 5.1 10.5 7.8 9.5 9.1 9.5 8.5 10.8 6.6 8.2
3.7 4.0 5.6 5.8 6.4 10.5 12.5 19.7 20.7 18.3 17.8 19.7 19.6 19.9 15.2 11.4 10.3 18.1 13.5 12.6 10.9 10.2 9.6 10.3 9.6 7.5 6.8 7.0 4.7 5.6 5.4 4.8 13.1 5.2 15.4 8.2 11.2 10.5 10.2 8.6 7.4 9.3 5.5
Water_Equivalent
0.06 0.04 0.02 0.04 0.03 0.02 0.02 0.04 0.02 0.00 0.00 0.00 0.00 0.00 0.00 0.00 0.00 0.00 0.00 0.00 0.00 0.00 0.00 0.00 0.00 0.00 0.00 0.00 0.00 0.00 0.00 0.00 0.00 0.00 0.00 0.00 0.00 0.00 0.00 0.00 0.00 0.00 0.00
0.37 0.28 0.10 0.09 0.08 0.06 0.06 0.05 0.07 0.04 0.01 0.00 0.00 0.00 0.00 0.00 0.00 0.00 0.00 0.00 0.00 0.00 0.00 0.00 0.00 0.00 0.00 0.00 0.00 0.00 0.00 0.00 0.00 0.00 0.00 0.00 0.00 0.00 0.00 0.00 0.00 0.00 0.00
1.10 0.96 0.32 0.38 0.23 0.40 0.42 0.20 0.14 0.15 0.10 0.02 0.01 0.00 0.00 0.00 0.00 0.00 0.00 0.00 0.00 0.00 0.00 0.00 0.00 0.00 0.00 0.00 0.00 0.00 0.00 0.00 0.00 0.00 0.00 0.00 0.00 0.00 0.00 0.00 0.00 0.00 0.00
0.34 1.06 0.96 0.87 1.54 0.81 0.67 0.61 0.67 0.27 0.35 0.15 0.07 0.06 0.04 0.02 0.00 0.00 0.00 0.00 0.00 0.00 0.01 0.02 0.01 0.00 0.01 0.00 0.00 0.00 0.00 0.00 0.00 0.00 0.00 0.00 0.00 0.00 0.00 0.00 0.00 0.00 0.00
0.06 0.07 0.34 1.46 0.99 0.92 1.25 1.22 1.04 0.82 0.76 0.50 0.31 0.27 0.18 0.31 0.29 0.14 0.09 0.20 0.18 0.09 0.16 0.18 0.14 nan nan nan 0.01 0.00 0.00 0.00 0.00 0.00 0.00 0.00 0.00 0.00 0.00 0.00 0.00 0.00 0.00
0.00 0.00 0.00 0.00 0.02 0.37 0.28 0.34 0.20 0.47 0.93 0.46 0.85 0.30 0.32 0.20 nan nan 0.45 0.64 0.61 0.65 0.77 0.73 0.38 0.50 0.41 nan nan nan nan 0.10 0.00 0.00 0.00 0.00 0.01 0.09 0.03 0.00 0.00 0.00 0.00
0.00 0.00 0.00 0.00 0.00 0.00 0.03 0.01 0.12 0.14 0.16 0.21 0.24 0.24 0.18 0.26 nan nan nan 0.61 0.78 0.82 0.79 0.76 0.72 0.76 nan 0.51 nan nan nan nan 0.31 0.15 0.20 0.30 0.28 0.24 0.09 0.03 0.01 0.00 0.00
0.03 0.00 0.00 0.00 0.00 0.00 0.00 0.01 0.03 0.03 0.06 0.05 0.05 0.04 0.03 0.03 nan nan nan 0.01 0.03 0.07 0.10 0.09 0.08 0.10 0.23 0.34 0.35 0.34 0.28 0.27 0.25 0.19 0.26 0.31 0.34 0.23 0.15 0.06 0.01 0.00 0.01
0.27 0.35 0.08 0.02 0.02 0.02 0.03 0.03 0.05 0.04 0.07 0.25 0.11 0.13 0.12 0.14 nan nan 0.01 0.01 0.04 0.13 0.08 0.08 0.03 0.02 nan nan 0.01 0.04 0.20 0.35 nan nan nan nan nan nan nan 0.07 0.18 0.17 0.33
0.23 0.36 0.51 0.17 0.24 0.14 0.14 0.21 0.10 0.06 0.31 0.45 0.31 0.39 nan 0.20 nan nan nan 0.12 0.26 0.43 0.35 0.29 nan 0.23 nan nan 0.02 0.07 0.50 0.77 0.77 0.72 0.76 0.79 nan nan nan 0.49 0.33 0.24 0.55
0.07 0.07 0.16 0.33 0.50 0.52 0.42 0.15 0.30 0.25 0.22 0.38 0.50 0.57 0.71 0.56 0.42 nan nan 0.36 0.83 0.82 0.84 0.87 0.82 nan nan nan nan 0.53 0.64 1.04 1.33 1.31 1.14 1.26 1.11 0.88 0.80 0.82 0.85 0.95 1.03
0.02 0.04 0.04 0.07 0.09 0.07 0.19 0.18 0.30 0.30 0.51 0.47 0.35 0.59 0.65 0.62 nan nan nan nan nan 0.76 1.03 1.35 1.62 nan nan nan 0.88 nan nan 0.96 1.55 1.47 1.34 1.33 1.39 1.42 1.32 1.35 1.41 1.31 1.35
0.00 0.01 0.02 0.02 0.01 0.02 0.06 0.09 0.31 0.13 0.38 0.30 0.50 0.75 0.77 0.55 0.52 nan nan nan nan 1.16 1.26 1.69 nan nan nan 0.51 nan nan 1.29 2.21 2.68 3.12 2.95 2.56 2.20 1.76 1.32 1.22 1.07 1.05 1.25
0.00 0.00 0.00 0.00 0.00 0.00 0.02 0.04 0.10 0.24 0.29 0.36 0.53 0.68 0.68 0.67 0.69 0.58 0.63 0.69 nan 0.96 0.50 1.21 1.03 1.06 1.00 1.30 1.47 1.57 1.69 2.03 2.36 2.55 2.40 2.18 1.85 1.68 1.62 1.48 1.49 1.49 1.40
0.00 0.00 0.00 0.00 0.00 0.01 0.04 0.10 0.11 0.24 0.24 0.43 0.65 0.83 1.55 1.81 1.64 1.45 1.23 1.44 1.61 1.12 1.50 1.57 1.56 1.54 1.61 1.54 1.53 1.58 1.55 1.56 1.79 1.91 1.83 1.60 1.41 1.20 1.17 0.96 0.95 0.90 1.12
0.00 0.01 0.10 0.11 0.09 0.06 0.08 0.13 nan nan nan nan nan 0.87 1.69 nan nan nan nan nan nan nan 1.21 1.56 2.29 2.33 1.66 1.41 1.44 1.28 1.04 0.88 0.84 0.81 0.93 0.72 0.71 0.79 0.66 0.51 0.49 0.63 0.71
0.05 0.02 0.17 0.14 0.17 0.20 0.28 0.32 0.38 0.45 nan nan nan nan nan nan nan nan nan nan nan nan 1.30 1.23 1.83 1.99 1.22 0.66 0.57 0.55 0.80 0.72 0.34 0.53 0.62 0.66 0.56 0.40 0.52 0.45 0.48 0.41 0.46
0.42 0.20 0.52 0.55 0.59 0.74 0.95 1.11 1.28 1.34 1.69 1.85 nan nan nan nan nan nan nan nan 0.89 nan 0.55 0.75 1.01 0.90 0.42 0.34 0.31 0.35 0.41 0.57 0.54 0.37 0.62 0.95 1.13 0.71 0.73 0.45 0.38 0.69 0.41
0.34 0.73 1.09 1.20 1.37 1.45 1.37 1.36 1.30 1.17 1.21 1.23 1.06 0.85 1.09 nan nan nan nan 0.95 0.93 0.67 0.47 0.42 0.74 0.52 0.51 0.38 1.15 1.30 1.71 1.54 1.55 2.06 1.22 1.30 2.69 0.81 0.89 0.66 0.71 0.72 0.63
0.72 0.87 0.94 1.15 1.25 1.16 1.02 0.95 0.81 0.85 0.75 0.86 0.82 0.86 0.70 0.57 1.60 2.66 1.78 2.55 1.71 0.82 0.82 0.52 0.54 0.53 0.70 0.61 1.39 2.30 2.06 2.00 1.33 0.98 1.93 2.94 2.62 1.05 0.94 0.82 1.05 1.04 0.36
0.74 0.57 0.54 0.57 0.65 0.67 0.78 0.81 0.70 0.84 0.94 0.81 1.24 1.82 0.95 0.66 1.13 1.10 0.89 1.27 0.95 0.79 1.27 0.53 0.78 1.02 0.87 1.03 0.56 1.18 0.52 2.70 0.98 1.04 0.96 1.01 5.20 1.50 0.73 0.78 0.90 0.60 0.41
0.37 0.36 0.40 0.51 0.43 0.68 0.53 0.46 0.67 0.61 0.58 0.70 0.86 0.76 1.22 1.28 0.83 0.83 0.85 1.47 2.49 0.90 0.68 0.87 0.66 0.55 0.60 0.69 0.80 2.65 1.79 2.42 1.92 1.37 1.18 1.11 0.90 0.99 0.84 0.86 1.05 1.06 0.64
0.33 0.60 0.37 0.29 0.36 1.79 1.00 0.52 0.80 1.06 0.91 1.24 0.79 0.88 0.98 1.46 1.45 0.90 1.25 2.20 1.03 1.27 1.10 0.89 1.74 0.97 1.02 1.43 1.43 1.04 1.40 1.18 1.25 1.55 1.75 1.70 0.94 1.04 1.68 1.17 0.94 1.08 1.09
0.39 0.82 0.44 0.95 1.23 0.62 1.57 2.27 1.50 2.32 0.98 1.34 2.59 1.92 1.55 1.58 3.17 2.49 2.63 3.30 2.02 2.70 2.68 2.58 1.06 0.82 0.77 2.54 1.64 1.31 0.82 1.42 1.14 1.18 1.33 1.65 1.19 1.09 1.37 1.06 1.03 1.12 1.25
1.12 1.76 1.79 1.05 1.08 2.23 2.87 1.97 2.17 2.58 2.45 2.87 3.26 2.46 0.91 1.91 1.41 3.56 2.75 1.97 1.65 2.70 1.40 1.81 1.50 1.06 1.22 0.98 0.86 0.48 0.85 1.50 1.49 1.68 1.27 1.01 1.26 1.17 1.20 1.12 1.45 1.05 1.07
0.78 0.88 1.13 1.11 1.19 2.00 2.20 3.25 3.37 2.93 2.81 3.25 3.29 3.38 2.46 1.73 1.58 3.03 2.05 1.85 1.53 1.42 1.36 1.48 1.35 1.03 0.90 0.93 0.58 1.70 1.78 1.60 1.69 1.71 1.85 1.08 1.45 1.43 1.42 1.19 1.03 1.32 0.80
SL_Ratio
4.9 5.3 5.5 5.3 5.9 5.8 5.6 4.9 5.1 4.0 5.0 nan nan nan nan nan nan nan nan nan nan nan nan nan nan nan nan nan nan nan nan nan nan nan nan nan nan nan nan nan nan nan nan
3.1 3.2 5.2 4.8 4.5 3.9 4.2 3.4 3.4 2.6 2.8 3.3 nan nan nan nan nan nan nan nan nan nan nan nan nan nan nan nan nan nan nan nan nan nan nan nan nan nan nan nan nan nan nan
2.6 2.9 3.4 3.8 4.3 4.2 3.7 3.0 3.3 2.9 2.9 3.1 3.8 3.3 nan nan nan nan nan nan nan nan nan nan nan nan nan nan nan nan nan nan nan nan nan nan nan nan nan nan nan nan nan
3.9 2.7 3.0 3.3 3.0 4.1 3.9 3.9 3.4 3.8 3.6 3.4 4.3 4.3 4.1 4.5 5.0 nan nan 5.0 4.0 3.3 5.5 4.5 5.2 5.0 5.2 nan nan nan nan nan nan nan nan nan nan nan nan nan nan nan nan
4.6 5.5 4.4 2.6 3.0 3.1 2.9 3.3 3.5 3.8 3.5 3.2 4.0 4.6 4.9 4.0 3.9 4.4 5.0 4.6 4.9 4.3 4.0 4.4 4.3 nan nan nan 5.9 6.0 nan nan nan nan nan nan nan nan nan nan nan nan nan
nan 5.0 nan 5.0 4.3 4.1 4.2 4.5 5.8 5.4 4.0 4.6 3.4 5.2 6.0 4.3 nan nan 4.1 4.2 4.4 5.0 5.1 4.4 4.7 4.2 4.1 nan nan nan nan 3.0 5.0 nan nan 0.0 3.6 3.1 2.5 2.0 nan nan nan
nan nan nan 0.0 nan 10.0 7.8 7.3 7.8 5.5 4.9 5.5 4.6 4.9 5.5 5.1 nan nan nan 4.6 4.6 4.8 4.9 5.2 5.4 4.3 nan 4.3 nan nan nan nan 3.0 3.3 3.2 3.6 3.3 3.1 3.7 2.5 2.7 2.5 nan
3.4 nan nan nan 8.2 nan 10.0 3.9 4.1 3.9 4.2 4.8 5.8 6.3 6.3 5.1 nan nan nan 4.3 5.3 4.8 4.1 3.8 4.8 5.6 5.3 4.6 4.5 5.3 5.2 4.7 4.6 4.3 3.6 3.4 2.9 2.7 2.6 2.5 2.4 2.5 2.5
3.6 3.3 3.8 2.8 3.5 3.9 3.8 4.2 4.3 4.0 4.2 4.2 4.8 4.9 5.1 4.7 nan nan 6.7 6.7 5.2 5.1 5.2 4.9 5.4 6.5 nan nan 7.1 4.2 4.7 5.1 nan nan nan nan nan nan nan 2.5 2.7 2.6 2.7
3.5 3.3 2.7 3.2 2.7 2.9 2.9 3.4 3.6 3.9 4.0 3.9 4.4 4.3 nan 5.2 nan nan nan 4.3 5.3 5.0 5.1 5.1 nan 4.6 nan nan 6.7 5.0 5.8 6.5 5.5 5.3 5.5 5.8 nan nan nan 5.5 4.0 3.0 3.5
4.1 3.5 3.5 3.1 3.0 2.8 2.7 2.7 2.7 2.9 3.0 3.2 3.5 3.9 3.9 4.2 4.0 nan nan 4.7 5.2 5.3 5.1 5.2 4.7 nan nan nan nan 6.1 6.8 6.0 6.0 6.3 6.5 6.5 6.5 6.6 6.7 6.7 6.8 6.0 4.7
4.0 4.3 4.5 4.5 4.4 4.0 3.8 3.6 3.3 3.2 3.2 3.5 3.7 3.6 3.4 3.2 nan nan nan nan nan 4.6 5.3 4.7 4.4 nan nan nan 5.2 nan nan 3.9 5.4 6.0 6.1 6.2 6.0 5.9 5.6 5.7 6.0 6.0 6.1
nan 4.8 4.6 4.2 4.3 4.7 4.5 5.1 5.1 4.7 4.7 5.2 4.7 4.3 4.6 4.2 4.2 nan nan nan nan 4.5 4.5 4.5 nan nan nan 3.0 nan nan 3.0 5.2 5.2 5.2 5.2 5.3 5.1 4.9 4.9 5.2 5.5 5.9 6.4
nan nan nan nan 5.6 6.0 5.2 5.4 5.3 5.0 5.5 5.6 5.6 6.2 5.9 5.2 4.9 4.7 4.7 4.6 nan 4.8 3.6 4.7 3.0 4.5 3.0 3.6 4.1 4.7 4.7 5.1 5.5 6.0 6.4 6.3 6.0 6.1 6.3 6.1 6.2 6.2 6.3
nan nan nan 2.9 nan 4.1 5.3 5.8 4.8 6.1 5.2 5.2 6.0 6.0 6.0 6.3 6.4 5.3 4.7 4.7 4.3 4.3 3.5 4.0 4.3 4.5 4.8 5.0 5.0 5.3 5.1 5.1 5.9 6.1 6.3 6.5 6.4 6.4 6.6 6.1 6.4 6.8 6.9
10.0 4.0 3.9 3.8 3.8 4.2 4.6 5.5 nan nan nan nan nan 4.9 5.0 nan nan nan nan nan nan nan 4.0 4.7 5.8 6.0 6.5 6.7 7.0 7.0 6.7 5.9 6.5 5.9 5.9 6.6 6.9 6.8 6.7 6.0 5.9 6.3 6.7
4.8 4.6 3.9 3.9 4.0 4.3 4.3 4.3 5.2 5.1 nan nan nan nan nan nan nan nan nan nan nan nan 5.1 6.3 6.6 6.2 6.1 5.7 5.6 5.7 6.6 6.3 7.1 5.6 5.5 5.5 5.2 5.1 4.9 4.9 4.9 5.0 5.3
4.9 3.0 4.3 4.7 4.8 4.9 4.7 4.9 5.1 5.3 5.9 6.0 nan nan nan nan nan nan nan nan 5.2 nan 5.7 6.6 6.7 6.2 5.9 6.0 6.0 6.2 6.0 5.4 5.1 4.8 4.7 5.1 5.4 5.1 4.9 5.0 4.8 6.1 5.1
4.5 4.8 5.1 4.8 4.8 5.0 5.2 5.6 5.8 6.0 6.5 6.9 6.6 4.9 4.0 nan nan nan nan 6.2 6.8 6.4 6.1 6.4 6.5 6.5 6.4 6.3 6.9 6.5 6.5 6.2 5.8 5.7 5.3 5.5 5.3 5.6 5.7 5.5 5.6 4.8 4.2
5.1 3.4 4.5 5.3 5.6 5.5 5.7 5.8 5.9 6.0 6.3 7.1 7.5 8.1 7.7 5.5 6.9 6.8 7.2 6.8 7.6 8.2 7.9 7.6 7.6 7.9 7.4 7.2 6.7 6.6 6.2 6.0 6.2 5.8 6.3 5.7 5.5 6.0 6.5 6.4 6.2 6.1 5.5
5.9 5.3 3.0 5.4 5.8 5.9 6.1 6.3 6.4 6.9 7.4 7.7 7.5 6.8 3.0 8.0 7.9 7.8 8.1 7.7 8.2 8.2 7.4 7.7 7.2 6.8 6.4 6.4 6.7 6.8 6.7 6.1 6.8 6.9 6.7 6.6 5.6 6.9 6.0 5.8 5.8 5.6 5.7
5.4 5.2 4.9 5.2 5.4 5.9 6.0 5.6 6.1 6.2 6.3 6.7 7.0 6.3 3.0 6.9 7.7 7.7 7.7 7.0 6.4 7.6 7.7 7.1 7.5 7.6 7.4 7.3 7.2 6.4 7.1 6.8 6.7 6.9 7.0 7.5 6.8 6.1 6.6 6.1 6.8 6.5 5.7
4.8 4.5 4.9 5.5 5.4 3.2 5.7 6.0 6.8 6.6 6.7 6.5 6.9 7.2 7.1 7.1 7.2 7.8 7.4 6.6 7.3 7.1 7.2 7.6 6.9 7.6 7.1 7.2 6.8 7.2 7.9 7.7 7.2 6.9 7.4 7.1 7.0 6.6 6.5 6.3 6.4 7.1 7.9
4.6 4.5 4.7 5.0 5.3 5.8 6.4 6.4 6.5 3.2 6.6 6.3 6.0 6.3 6.6 6.6 6.1 6.4 6.3 5.8 6.5 6.2 6.3 6.3 7.5 7.8 7.8 6.6 7.1 7.1 7.4 7.4 7.2 7.9 7.0 7.8 7.0 4.7 6.5 6.7 6.6 8.3 8.3
4.7 4.7 4.9 5.4 5.6 5.6 5.7 6.2 6.2 5.8 5.9 5.8 6.0 6.1 6.9 6.2 6.6 5.7 6.2 6.6 6.9 6.3 6.8 6.6 6.8 7.3 7.4 8.1 8.3 8.7 6.4 3.0 6.0 3.0 8.3 7.8 7.6 7.8 8.0 7.5 7.5 6.3 7.6
4.7 4.6 5.0 5.3 5.3 5.2 5.7 6.1 6.2 6.2 6.3 6.1 6.0 5.9 6.2 6.6 6.5 6.0 6.6 6.8 7.1 7.1 7.0 7.0 7.1 7.3 7.5 7.6 8.1 3.3 3.0 3.0 7.8 3.0 8.3 7.6 7.7 7.3 7.2 7.2 7.2 7.1 6.9